This demonstration page uses our WeatherBlox Daily Observations layout. Learn more.

Left ArrowRight Arrow

Hourly Observations for December 1, 2019

Temp ( °F °C ) Dew Point ( °F °C ) Humidity (%) Winds ( mph kmh ) Pressure ( in mb ) Visibility ( mi km ) Precip ( " mm )
12:53 am 00:53 Clear -1 -18.3 -5 -20.6 82 82 Calm 30.19 1022 8 13 0.00 0.00
1:53 am 01:53 Clear -3 -19.4 -6 -21.1 86 86 Calm 30.20 1023 9 14 0.00 0.00
2:53 am 02:53 Clear -5 -20.6 -9 -22.8 83 83 Calm 30.19 1022 10 16 0.00 0.00
3:33 am 03:33 Clear with Mist and Fog -5 -20.6 -7 -21.7 91 91 Calm 30.36 1028 2 2 0.00 0.00
3:37 am 03:37 Clear with Mist and Fog -4 -20 -7 -21.7 86 86 Calm 30.36 1028 1 1 0.00 0.00
3:50 am 03:50 Mostly Cloudy with Mist and Fog -6 -21 -9 -23 84 84 Calm 30.36 1028 1 2 0.00 0.00
3:53 am 03:53 Mostly Cloudy with Mist and Fog -6 -21.1 -10 -23.3 83 83 Calm 30.18 1022 3 5 0.00 0.00
4:04 am 04:04 Mostly Cloudy with Mist and Fog -8 -22 -11 -24 84 84 Calm 30.36 1028 2 2 0.00 0.00
4:06 am 04:06 Mostly Cloudy with Mist and Fog -7 -21.7 -10 -23.3 87 87 Calm 30.36 1028 1 1 0.00 0.00
4:30 am 04:30 Mostly Cloudy with Freezing Fog -6 -21 -9 -23 84 84 Calm 30.36 1028 0 0 0.00 0.00
4:36 am 04:36 Mostly Cloudy with Mist and Fog -6 -21 -9 -23 84 84 WSW 3 6 30.36 1028 1 2 0.00 0.00
4:39 am 04:39 Cloudy with Mist and Fog -5 -20.6 -9 -22.8 83 83 W 5 7 30.36 1028 4 6 0.00 0.00
4:53 am 04:53 Cloudy -6 -21.1 -10 -23.3 83 83 W 3 6 30.18 1022 10 16 0.00 0.00
5:53 am 05:53 Cloudy -6 -21.1 -9 -22.8 86 86 SW 3 6 30.17 1022 10 16 0.00 0.00
6:53 am 06:53 Cloudy -6 -21.1 -10 -23.3 83 83 ENE 3 6 30.17 1022 7 11 0.00 0.00
7:03 am 07:03 Cloudy with Mist and Fog -6 -21.1 -9 -22.8 86 86 E 3 6 30.33 1027 2 2 0.00 0.00
7:06 am 07:06 Mostly Cloudy with Mist and Fog -6 -21 -9 -23 84 84 E 3 6 30.33 1027 1 1 0.00 0.00
7:16 am 07:16 Mostly Cloudy with Mist and Fog -6 -21 -8 -22 92 92 E 5 7 30.33 1027 2 2 0.00 0.00
7:19 am 07:19 Mostly Cloudy with Mist and Fog -5 -20.6 -8 -22.2 87 87 ESE 5 7 30.33 1027 4 6 0.00 0.00
7:28 am 07:28 Partly Cloudy -6 -21.1 -9 -22.8 86 86 E 6 9 30.33 1027 7 11 0.00 0.00
7:53 am 07:53 Sunny -5 -20.6 -9 -22.8 83 83 E 6 9 30.17 1022 7 11 0.00 0.00
8:53 am 08:53 Sunny -1 -18.3 -5 -20.6 82 82 E 5 7 30.16 1021 8 13 0.00 0.00
9:53 am 09:53 Partly Cloudy with Mist and Fog 5 -15 1 -17.2 83 83 Calm 30.15 1021 3 5 0.00 0.00
10:01 am 10:01 Hazy 5 -15 0 -17.8 79 79 Calm 30.24 1024 3 4 0.00 0.00
10:08 am 10:08 Partly Cloudy with Mist and Fog 3 -16 1 -17 92 92 Calm 30.27 1025 5 8 0.00 0.00
10:53 am 10:53 Sunny 9 -12.8 4 -15.6 80 80 Calm 30.14 1021 10 16 0.00 0.00
11:53 am 11:53 Sunny 10 -12.2 5 -15 80 80 Calm 30.12 1020 10 16 0.00 0.00
12:53 pm 12:53 Sunny 14 -10 7 -13.9 73 73 Calm 30.09 1019 10 16 0.00 0.00
1:53 pm 13:53 Sunny 14 -10 7 -13.9 73 73 Calm 30.09 1019 10 16 0.00 0.00
2:53 pm 14:53 Sunny 17 -8.3 8 -13.3 68 68 Calm 30.07 1018 10 16 0.00 0.00
3:53 pm 15:53 Sunny 13 -10.6 7 -13.9 77 77 WSW 5 7 30.07 1018 10 16 0.00 0.00
4:53 pm 16:53 Clear 9 -12.8 4 -15.6 80 80 WSW 10 17 30.09 1019 10 16 0.00 0.00
5:53 pm 17:53 Clear 12 -11.1 6 -14.4 77 77 SSW 12 19 30.06 1018 10 16 0.00 0.00
6:53 pm 18:53 Clear 8 -13.3 4 -15.6 83 83 W 9 15 30.06 1018 10 16 0.00 0.00
7:53 pm 19:53 Clear 10 -12.2 6 -14.4 84 84 W 6 9 30.06 1018 10 16 0.00 0.00
8:53 pm 20:53 Clear 10 -12.2 6 -14.4 84 84 W 7 11 30.04 1017 10 16 0.00 0.00
9:53 pm 21:53 Clear 13 -10.6 7 -13.9 77 77 SW 12 19 30.01 1016 10 16 0.00 0.00
10:53 pm 22:53 Clear 19 -7.2 13 -10.6 77 77 WNW 5 7 29.99 1016 10 16 0.00 0.00
11:53 pm 23:53 Clear 21 -6.1 16 -8.9 81 81 WSW 13 20 29.96 1015 10 16 0.00 0.00

Powered by AerisWeather